Вернуться в каталог

KIKU 3

ETS 4

АктивенНаукаHEO
NORAD 12295·PAYLOAD·🇯🇵 Japan

Запущен Feb 11, 1981 с Tanegashima Space Center

Loading…

Ближайшие Пролёты (ближайшие 24 часа)

TLE

СвежийSource: Space-Track

Эпоха: Sep 14, 2026, 01:12 UTC

1 12295U 81012A   26257.05031152  .00008167  00000-0  10495-2 0  9993
2 12295  28.4244 183.0590 4708975 304.3719  19.6335  6.12591159646639

Отслеживайте KIKU 3 в реальном времени с AllMySat

Download on the App Store